Location: Czekanka
(50.4925°N, 19.2643°E)
Time: 12:23:01
(UTC+00:00)

UNK - Pass Details

Date: 15 June 2024
Orbit: 659 x 679 km, 98.3° (Epoch: 15 July)

Event Time Altitude Azimuth Distance (km) Brightness Sun altitude
Rises 01:17:03 0° 155° (SSE) 3,016 6.8 -8.8°
Reaches altitude 10° 01:19:17 10° 153° (SSE) 2,103 6.0 -8.6°
Maximum altitude 01:23:50 66° 71° (ENE) 737 4.2 -8.1°
Drops below altitude 10° 01:28:24 10° 350° (N) 2,106 6.9 -7.7°
Sets 01:30:38 0° 348° (NNW) 3,021 7.7 -7.5°
